This demonstration page uses our WeatherBlox Daily Observations layout. Learn more.

Left ArrowRight Arrow

44.8408, -93.29828

Hourly Observations for November 27, 2020

Temp ( °F °C ) Dew Point ( °F °C ) Humidity (%) Winds ( mph kmh ) Pressure ( in mb ) Visibility ( mi km ) Precip ( " mm )
12:53 am 00:53 Clear 29 -1.7 26 -3.3 89 89 SSW 6 9 30.06 1018 9 14 0.00 0.00
1:53 am 01:53 Clear 29 -1.7 26 -3.3 89 89 WSW 5 7 30.06 1018 10 16 0.00 0.00
2:53 am 02:53 Partly Cloudy 30 -1.1 27 -2.8 88 88 WSW 8 13 30.07 1018 10 16 0.00 0.00
3:53 am 03:53 Clear 30 -1.1 27 -2.8 88 88 WSW 9 15 30.08 1019 9 14 0.00 0.00
4:53 am 04:53 Clear 29 -1.7 26 -3.3 89 89 WSW 8 13 30.09 1019 10 16 0.00 0.00
5:53 am 05:53 Clear 28 -2.2 24 -4.4 85 85 W 7 11 30.11 1020 10 16 0.00 0.00
6:53 am 06:53 Clear 28 -2.2 20 -6.7 72 72 W 12 19 30.13 1020 10 16 0.00 0.00
7:53 am 07:53 Sunny 28 -2.2 19 -7.2 69 69 WNW 10 17 30.14 1021 10 16 0.00 0.00
8:53 am 08:53 Sunny 29 -1.7 20 -6.7 69 69 WNW 13 20 30.17 1022 10 16 0.00 0.00
9:53 am 09:53 Sunny 30 -1.1 20 -6.7 66 66 WNW 12 19 30.17 1022 10 16 0.00 0.00
10:53 am 10:53 Sunny 32 0 20 -6.7 61 61 W 8 13 30.18 1022 10 16 0.00 0.00
11:53 am 11:53 Sunny 34 1.1 19 -7.2 54 54 W 12 19 30.16 1021 10 16 0.00 0.00
12:53 pm 12:53 Sunny 36 2.2 19 -7.2 50 50 W 8 13 30.15 1021 10 16 0.00 0.00
1:53 pm 13:53 Mostly Sunny 36 2.2 18 -7.8 48 48 W 12 19 30.14 1021 10 16 0.00 0.00
2:53 pm 14:53 Partly Cloudy 36 2.2 19 -7.2 50 50 WSW 9 15 30.13 1020 10 16 0.00 0.00
3:53 pm 15:53 Partly Cloudy 35 1.7 21 -6.1 57 57 WSW 13 20 30.15 1021 10 16 0.00 0.00
4:53 pm 16:53 Mostly Clear 33 0.6 21 -6.1 61 61 WSW 7 11 30.15 1021 10 16 0.00 0.00
5:53 pm 17:53 Mostly Clear 32 0 22 -5.6 66 66 SW 5 7 30.15 1021 10 16 0.00 0.00
6:53 pm 18:53 Mostly Clear 31 -0.6 22 -5.6 69 69 S 5 7 30.14 1021 10 16 0.00 0.00
7:53 pm 19:53 Mostly Clear 31 -0.6 22 -5.6 69 69 SSW 5 7 30.12 1020 10 16 0.00 0.00
8:53 pm 20:53 Mostly Clear 32 0 22 -5.6 66 66 SW 8 13 30.10 1019 10 16 0.00 0.00
9:53 pm 21:53 Clear 32 0 22 -5.6 66 66 SW 6 9 30.09 1019 10 16 0.00 0.00
10:53 pm 22:53 Clear 32 0 23 -5 69 69 SSW 3 6 30.07 1018 10 16 0.00 0.00
11:53 pm 23:53 Clear 32 0 24 -4.4 73 73 SW 3 6 30.06 1018 10 16 0.00 0.00

Powered by AerisWeather